Location: Buch
(49.7331°N, 12.1098°E)
Time: 01:24:41
(UTC+00:00)

Cosmos 1680 Rocket - Pass Details

Date: 12 May 2021
Orbit: 759 x 781 km, 74.1° (Epoch: 23 June)

Event Time Altitude Azimuth Distance (km) Brightness Sun altitude
Rises 21:29:21 0° 333° (NNW) 3,277 8.5 -18.5°
Reaches altitude 10° 21:31:47 10° 329° (NNW) 2,346 7.3 -18.7°
Maximum altitude 21:36:59 57° 253° (WSW) 924 3.9 -19.0°
Enters shadow 21:39:18 32° 189° (S) 1,331 4.3 -19.1°
